Simultaneous Nadir Overpasses (SNOs) Predictions

Prediction of SNOs between NOAA-19 and METOP-C Satellite Orbit:

Table of predicted SNOs for the next 14.0 days since TLE Epoch: 2/15/2025
Index Date (NOAA-19) Time (NOAA-19) Lat,Lon (NOAA-19) SZA (NOAA-19 ) Date (METOP-C) Time (METOP-C) Lat,Lon (METOP-C) SZA (METOP-C ) Distance(km) Time Diff (sec)
1 02/21/2025 15:34:18 -78.25,-138.04 79.47 02/21/2025 15:35:19 -78.26,-138.09 79.43 1.36 61
2 02/21/2025 16:25:12 78.21, 29.47 100.57 02/21/2025 16:25:59 78.20, 29.56 100.63 2.48 47
3 02/21/2025 17:16:06 -77.91,-161.60 79.10 02/21/2025 17:16:32 -77.92,-161.62 79.08 0.58 26
4 02/21/2025 18:06:55 77.67, 6.93 101.17 02/21/2025 18:07:08 77.69, 6.82 101.15 3.08 13
5 02/21/2025 18:57:53 -77.52, 174.93 78.68 02/21/2025 18:57:44 -77.52, 174.93 78.69 0.25 9
6 02/21/2025 19:48:42 77.27, -16.61 101.58 02/21/2025 19:48:20 77.28, -16.68 101.55 2.10 22
7 02/21/2025 20:39:39 -77.08, 151.53 78.22 02/21/2025 20:38:55 -77.07, 151.56 78.26 1.07 44



Historial Predications of SNOs between NOAA-19 and METOP-C
